Home   Weather   Konya   Past weeks

Flag for Turkey Past Weather in Konya, Turkey — Yesterday and Last 2 Weeks

Now
61 °F

Clear.


Feels Like: 61 °F
Forecast: 42 / 72 °F
Wind: 9 mph from North

Location: Konya Airport

Current Time: Sep 29, 2016 at 9:44:39 PM

Latest Report: Sep 29, 2016 at 8:50 PM


Visibility: 10 mi

Pressure: 30.21 "Hg (26.71 "Hg at 1041m altitude)

Humidity: 34%

Dew Point: 32 °F

Location of KonyaLocation

Past Weather in Konya — Graph

°F

Konya Temperature Yesterday

Maximum temperature yesterday: 68 °F (at 3:50 PM)
Minimum temperature yesterday: 54 °F (at 4:50 AM)
Average temperature yesterday: 60 °F

High & Low Weather Summary for the Past Weeks

 TemperatureHumidityPressure
High86 °F (Sep 19, 2:50 PM)94% (Sep 15, 11:50 PM)30.33 "Hg (Sep 15, 11:50 PM)
Low43 °F (Sep 24, 5:50 AM)13% (Sep 19, 3:50 PM)29.89 "Hg (Sep 20, 2:50 PM)
Average61 °F50%30.08 "Hg
* Reported Sep 14 7:50 PM — Sep 29 7:50 PM, Konya, Weather by CustomWeather, © 2016

Note: Actual official high and low records may vary slightly from our data, if they occured in-between our weather recording intervals... More about our weather records

Advertising

Konya Weather History for the Previous 24 Hours

Scroll right to see more
 ConditionsComfort  
Time TempWeatherWind HumidityBarometerVisibility
7:50 PM
Thu, Sep 29
63 °FClear.12 mph32%30.21 "Hg10 mi
6:50 PM64 °FClear.7 mph28%30.21 "Hg10 mi
5:50 PM68 °FSunny.14 mph24%30.21 "Hg10 mi
4:50 PM72 °FPassing clouds.14 mph20%30.18 "HgN/A
3:50 PM70 °FPassing clouds.6 mph27%30.21 "HgN/A
2:50 PM70 °FSunny.6 mph31%30.21 "Hg10 mi
1:50 PM68 °FSunny.5 mph33%30.24 "Hg10 mi
12:50 PM66 °FPassing clouds.7 mph32%30.27 "HgN/A
11:50 AM64 °FPassing clouds.5 mph37%30.30 "HgN/A
10:50 AM61 °FSunny.2 mph42%30.30 "Hg10 mi
9:50 AM59 °FSunny.10 mph45%30.33 "Hg10 mi
8:50 AM57 °FSunny.10 mph51%30.33 "Hg10 mi
7:50 AM52 °FSunny.1 mph62%30.33 "Hg10 mi
6:50 AM48 °FSunny.8 mph66%30.33 "Hg10 mi
5:50 AM48 °FClear.5 mph66%30.33 "Hg10 mi
4:50 AM48 °FClear.5 mph66%30.33 "Hg10 mi
3:50 AM50 °FClear.6 mph62%30.33 "Hg10 mi
2:50 AM52 °FClear.7 mph58%30.33 "Hg10 mi
1:50 AM54 °FClear.10 mph54%30.33 "Hg10 mi
12:50 AM54 °FClear.12 mph58%30.33 "Hg10 mi
11:50 PM
Wed, Sep 28
55 °FClear.15 mph55%30.33 "Hg10 mi
10:50 PM55 °FClear.9 mph55%30.33 "Hg10 mi
9:50 PM57 °FClear.10 mph48%30.33 "Hg10 mi
Weather by CustomWeather, © 2016

See weather overviewHow to use our weather pages